TimeCST,TemperatureF,Dew PointF,Humidity,Sea Level PressureIn,VisibilityMPH,Wind Direction,Wind SpeedMPH,Gust SpeedMPH,PrecipitationIn,Events,Conditions,WindDirDegrees,DateUTC
12:15 AM,-2.2,-7.6,78,29.92,5.0,NW,18.4,28.8,N/A,,Haze,320,2013-02-19 06:15:00
12:35 AM,-2.2,-7.6,78,29.93,5.0,NNW,18.4,26.5,N/A,,Haze,330,2013-02-19 06:35:00
12:52 AM,-2.2,-7.6,78,29.94,7.0,NNW,17.3,23.0,N/A,,Overcast,330,2013-02-19 06:52:00
1:14 AM,-2.2,-7.6,78,29.94,7.0,NW,16.1,24.2,N/A,,Overcast,320,2013-02-19 07:14:00
1:34 AM,-2.2,-7.6,78,29.94,7.0,NW,18.4,26.5,N/A,,Overcast,320,2013-02-19 07:34:00
1:53 AM,-2.2,-9.4,71,29.95,7.0,NW,19.6,25.3,N/A,,Overcast,320,2013-02-19 07:53:00
2:15 AM,-2.2,-9.4,71,29.95,10.0,NW,18.4,23.0,N/A,,Overcast,320,2013-02-19 08:15:00
2:34 AM,-2.2,-9.4,71,29.96,10.0,NW,18.4,25.3,N/A,,Overcast,320,2013-02-19 08:34:00
2:53 AM,-2.2,-9.4,71,29.97,7.0,NW,17.3,-,N/A,,Overcast,320,2013-02-19 08:53:00
3:15 AM,-4.0,-9.4,78,29.98,7.0,NW,17.3,25.3,N/A,,Overcast,310,2013-02-19 09:15:00
3:35 AM,-5.8,-9.4,84,29.98,10.0,NW,15.0,21.9,N/A,,Overcast,310,2013-02-19 09:35:00
3:53 AM,-5.8,-9.4,84,29.98,10.0,NW,16.1,20.7,N/A,,Overcast,310,2013-02-19 09:53:00
4:15 AM,-5.8,-9.4,84,29.99,10.0,NW,13.8,-,N/A,,Overcast,310,2013-02-19 10:15:00
4:34 AM,-5.8,-11.2,77,30.00,10.0,NW,13.8,-,N/A,,Overcast,310,2013-02-19 10:34:00
4:53 AM,-7.6,-11.2,84,30.00,10.0,NW,17.3,21.9,N/A,,Overcast,310,2013-02-19 10:53:00
5:15 AM,-7.6,-13.0,77,30.01,10.0,NW,18.4,23.0,N/A,,Overcast,310,2013-02-19 11:15:00
5:35 AM,-9.4,-14.8,77,30.02,10.0,WNW,12.7,16.1,N/A,,Overcast,300,2013-02-19 11:35:00
5:52 AM,-9.4,-14.8,77,30.03,10.0,NW,17.3,-,N/A,,Mostly Cloudy,310,2013-02-19 11:52:00
6:14 AM,-11.2,-16.6,77,30.04,10.0,WNW,15.0,-,N/A,,Clear,300,2013-02-19 12:14:00
6:35 AM,-11.2,-16.6,77,30.05,10.0,NW,13.8,-,N/A,,Clear,310,2013-02-19 12:35:00
6:53 AM,-11.2,-16.6,77,30.06,10.0,NW,15.0,-,N/A,,Clear,310,2013-02-19 12:53:00
7:14 AM,-11.2,-16.6,77,30.07,10.0,NW,16.1,-,N/A,,Clear,310,2013-02-19 13:14:00
7:35 AM,-11.2,-16.6,77,30.09,10.0,NW,15.0,-,N/A,,Mostly Cloudy,310,2013-02-19 13:35:00
7:53 AM,-11.2,-16.6,77,30.10,10.0,NW,12.7,-,N/A,,Scattered Clouds,310,2013-02-19 13:53:00
8:15 AM,-11.2,-16.6,77,30.10,10.0,NW,11.5,-,N/A,,Clear,310,2013-02-19 14:15:00
8:35 AM,-9.4,-16.6,71,30.11,10.0,NW,16.1,20.7,N/A,,Clear,310,2013-02-19 14:35:00
8:52 AM,-9.4,-16.6,71,30.12,10.0,NW,15.0,-,N/A,,Clear,310,2013-02-19 14:52:00
9:15 AM,-9.4,-16.6,71,30.12,10.0,NW,17.3,-,N/A,,Clear,310,2013-02-19 15:15:00
9:35 AM,-9.4,-16.6,71,30.13,10.0,NW,19.6,-,N/A,,Clear,310,2013-02-19 15:35:00
9:52 AM,-9.4,-16.6,71,30.14,10.0,NW,15.0,23.0,N/A,,Clear,310,2013-02-19 15:52:00
10:15 AM,-9.4,-16.6,71,30.15,10.0,NW,15.0,21.9,N/A,,Clear,310,2013-02-19 16:15:00
10:35 AM,-9.4,-16.6,71,30.16,10.0,WNW,12.7,-,N/A,,Clear,300,2013-02-19 16:35:00
10:52 AM,-9.4,-16.6,71,30.16,10.0,NW,18.4,-,N/A,,Clear,310,2013-02-19 16:52:00
11:15 AM,-7.6,-16.6,65,30.16,10.0,NW,17.3,-,N/A,,Clear,310,2013-02-19 17:15:00
11:35 AM,-7.6,-16.6,65,30.17,10.0,NW,17.3,-,N/A,,Clear,310,2013-02-19 17:35:00
11:52 AM,-7.6,-16.6,65,30.17,7.0,WNW,19.6,23.0,N/A,,Clear,300,2013-02-19 17:52:00
12:15 PM,-5.8,-14.8,65,30.18,10.0,WNW,18.4,21.9,N/A,,Clear,300,2013-02-19 18:15:00
12:35 PM,-5.8,-14.8,65,30.18,10.0,NW,15.0,24.2,N/A,,Clear,310,2013-02-19 18:35:00
12:53 PM,-5.8,-14.8,65,30.18,10.0,WNW,17.3,21.9,N/A,,Clear,300,2013-02-19 18:53:00
1:15 PM,-5.8,-14.8,65,30.19,10.0,WNW,16.1,21.9,N/A,,Clear,300,2013-02-19 19:15:00
1:34 PM,-4.0,-14.8,60,30.19,10.0,NW,15.0,-,N/A,,Clear,310,2013-02-19 19:34:00
1:53 PM,-4.0,-13.0,65,30.19,10.0,NW,12.7,18.4,N/A,,Clear,310,2013-02-19 19:53:00
2:14 PM,-2.2,-13.0,60,30.19,10.0,NW,11.5,17.3,N/A,,Clear,310,2013-02-19 20:14:00
2:35 PM,-2.2,-13.0,60,30.20,10.0,NW,15.0,18.4,N/A,,Clear,320,2013-02-19 20:35:00
2:53 PM,-2.2,-11.2,66,30.21,10.0,NW,16.1,20.7,N/A,,Clear,320,2013-02-19 20:53:00
3:15 PM,-2.2,-11.2,66,30.22,10.0,WNW,13.8,-,N/A,,Clear,300,2013-02-19 21:15:00
3:35 PM,-2.2,-11.2,66,30.22,10.0,NW,13.8,-,N/A,,Clear,310,2013-02-19 21:35:00
3:53 PM,-0.4,-11.2,60,30.23,10.0,WNW,11.5,17.3,N/A,,Clear,300,2013-02-19 21:53:00
4:15 PM,-0.4,-11.2,60,30.24,10.0,WNW,10.4,-,N/A,,Clear,300,2013-02-19 22:15:00
4:35 PM,-2.2,-11.2,66,-9999,10.0,WNW,10.4,-,N/A,,Clear,300,2013-02-19 22:35:00
4:52 PM,-2.2,-13.0,60,30.26,10.0,WNW,12.7,-,N/A,,Clear,300,2013-02-19 22:52:00
5:15 PM,-2.2,-13.0,60,30.27,10.0,NW,12.7,18.4,N/A,,Clear,310,2013-02-19 23:15:00
6:35 PM,-9.4,-16.6,71,30.29,10.0,WNW,8.1,-,N/A,,Clear,300,2013-02-20 00:35:00
6:53 PM,-9.4,-16.6,71,30.31,10.0,WNW,5.8,-,N/A,,Clear,290,2013-02-20 00:53:00
7:15 PM,-9.4,-16.6,71,30.32,10.0,WNW,5.8,-,N/A,,Clear,290,2013-02-20 01:15:00
7:35 PM,-11.2,-16.6,77,30.33,10.0,West,4.6,-,N/A,,Clear,280,2013-02-20 01:35:00
7:52 PM,-11.2,-18.4,70,30.32,10.0,WNW,6.9,-,N/A,,Clear,300,2013-02-20 01:52:00
8:15 PM,-13.0,-18.4,77,30.33,10.0,WNW,5.8,-,N/A,,Clear,300,2013-02-20 02:15:00
8:34 PM,-13.0,-18.4,77,30.33,10.0,NW,6.9,-,N/A,,Clear,310,2013-02-20 02:34:00
9:15 PM,-11.2,-18.4,70,30.33,10.0,NNW,4.6,-,N/A,,Clear,330,2013-02-20 03:15:00
9:35 PM,-13.0,-18.4,77,30.34,10.0,NW,4.6,-,N/A,,Clear,320,2013-02-20 03:35:00
9:53 PM,-14.8,-18.4,84,30.34,10.0,Calm,Calm,-,N/A,,Clear,0,2013-02-20 03:53:00
10:14 PM,-16.6,-20.2,84,30.35,10.0,West,8.1,-,N/A,,Clear,260,2013-02-20 04:14:00
10:35 PM,-16.6,-20.2,84,30.35,10.0,NW,5.8,-,N/A,,Clear,310,2013-02-20 04:35:00
10:53 PM,-16.6,-20.2,84,30.35,10.0,Calm,Calm,-,N/A,,Clear,0,2013-02-20 04:53:00
11:15 PM,-16.6,-20.2,84,30.36,10.0,WNW,4.6,-,N/A,,Clear,290,2013-02-20 05:15:00
11:35 PM,-18.4,-23.8,76,30.37,10.0,West,4.6,-,N/A,,Clear,270,2013-02-20 05:35:00